Home   Weather   Naples   Past weeks

Flag for Italy Past Weather in Naples, Italy — Yesterday and Last 2 Weeks

Now
52 °F

Partly cloudy.


Feels Like: 47 °F
Forecast: 43 / 56 °F
Wind: 13 mph from Northeast

Location: Naples / Capodichino

Current Time: Jan 24, 2017 at 6:38:06 pm

Latest Report: Jan 24, 2017 at 5:50 pm


Visibility: N/A

Pressure: 29.89 "Hg

Humidity: 67%

Dew Point: 41 °F

Location of NaplesLocation

Past Weather in Naples — Graph

°F

Naples Temperature Yesterday

Maximum temperature yesterday: 54 °F (at 10:50 am)
Minimum temperature yesterday: 48 °F (at 7:20 pm)
Average temperature yesterday: 51 °F

High & Low Weather Summary for the Past Weeks

 TemperatureHumidityPressure
High57 °F (Jan 13, 8:20 am)94% (Jan 13, 12:20 am)30.33 "Hg (Jan 13, 12:20 am)
Low28 °F (Jan 12, 1:20 am)28% (Jan 14, 3:50 pm)29.56 "Hg (Jan 16, 11:50 pm)
Average45 °F70%29.95 "Hg
* Reported Jan 9 5:20 pm — Jan 24 5:20 pm, Naples, Weather by CustomWeather, © 2017

Note: Actual official high and low records may vary slightly from our data, if they occured in-between our weather recording intervals... More about our weather records

Advertising

Naples Weather History for the Previous 24 Hours

Scroll right to see more
 ConditionsComfort  
Time TempWeatherWind HumidityBarometerVisibility
5:20 pm
Tue, Jan 24
52 °FPartly cloudy.9 mph72%29.89 "HgN/A
4:50 pm52 °FBroken clouds.10 mph67%29.89 "HgN/A
4:20 pm52 °FBroken clouds.14 mph72%29.89 "HgN/A
3:50 pm54 °FDrizzle. Broken clouds.14 mph63%29.86 "HgN/A
3:20 pm54 °FDrizzle. Broken clouds.16 mph63%29.86 "HgN/A
2:50 pm54 °FBroken clouds.13 mph63%29.86 "HgN/A
2:20 pm54 °FPartly sunny.13 mph63%29.86 "HgN/A
1:50 pm54 °FPartly sunny.9 mph63%29.86 "HgN/A
1:20 pm54 °FPartly sunny.8 mph67%29.89 "HgN/A
12:50 pm52 °FBroken clouds.9 mph67%29.89 "HgN/A
11:50 am52 °FLight rain. Partly sunny.8 mph72%29.89 "HgN/A
11:20 am52 °FDrizzle. Partly sunny.21 mph67%29.89 "HgN/A
10:50 am52 °FPartly sunny.10 mph72%29.92 "HgN/A
10:20 am52 °FPartly sunny.9 mph72%29.92 "HgN/A
9:50 am50 °FPartly sunny.9 mph76%29.92 "HgN/A
9:20 am50 °FPartly sunny.7 mph76%29.92 "HgN/A
8:50 am50 °FPartly sunny.7 mph76%29.89 "HgN/A
8:20 am48 °FBroken clouds.5 mph87%29.89 "HgN/A
7:50 am48 °FBroken clouds.5 mph87%29.89 "Hg5 mi
7:20 am48 °FBroken clouds.6 mph87%29.89 "Hg5 mi
6:50 am48 °FLight rain. Partly cloudy.5 mph87%29.89 "Hg5 mi
6:20 am48 °FLight rain. Passing clouds.3 mph87%29.89 "Hg5 mi
5:50 am50 °FLight rain. Passing clouds.7 mph82%29.89 "Hg5 mi
4:50 am48 °FPassing clouds.6 mph87%29.89 "Hg5 mi
4:20 am48 °FPassing clouds.7 mph87%29.86 "Hg5 mi
3:50 am50 °FLight rain. Passing clouds.5 mph82%29.89 "Hg5 mi
3:20 am50 °FLight rain. Passing clouds.6 mph82%29.89 "Hg5 mi
2:50 am50 °FLight rain. Passing clouds.6 mph82%29.89 "Hg5 mi
2:20 am50 °FLight rain. Passing clouds.6 mph82%29.89 "Hg5 mi
1:50 am50 °FPassing clouds.7 mph82%29.89 "Hg5 mi
1:20 am50 °FPassing clouds.6 mph82%29.89 "Hg5 mi
12:50 am50 °FPassing clouds.6 mph82%29.89 "Hg5 mi
12:20 am50 °FPassing clouds.5 mph82%29.89 "Hg5 mi
11:50 pm
Mon, Jan 23
50 °FPassing clouds.5 mph82%29.92 "Hg5 mi
11:20 pm50 °FPassing clouds.5 mph82%29.92 "Hg5 mi
10:50 pm52 °FPassing clouds.5 mph77%29.92 "Hg5 mi
10:20 pm50 °FPassing clouds.5 mph82%29.92 "Hg5 mi
9:50 pm50 °FPassing clouds.8 mph82%29.92 "Hg5 mi
9:20 pm50 °FPassing clouds.7 mph82%29.92 "Hg5 mi
8:50 pm50 °FPassing clouds.3 mph88%29.92 "Hg5 mi
8:20 pm50 °FLight rain. Passing clouds.5 mph88%29.92 "Hg5 mi
7:50 pm50 °FLight rain. Passing clouds.5 mph88%29.92 "Hg4 mi
7:20 pm48 °FLight rain. Passing clouds.5 mph94%29.95 "Hg4 mi
6:50 pm50 °FLight rain. Passing clouds.6 mph88%29.92 "Hg4 mi
6:20 pm50 °FLight rain. Passing clouds.6 mph94%29.92 "Hg4 mi
Weather by CustomWeather, © 2017

See weather overviewHow to use our weather pages